Weather History for Watsonville, CA

Change the Weather History Date:

Tuesday, April 29, 2014

  Actual Average Record
Temperature  
Mean Temperature 65 °F 57 °F  
Max Temperature 84 °F 68 °F 84 °F (2014)
Min Temperature 46 °F 46 °F 37 °F (2009)
Degree Days  
Heating Degree Days 0    
Month to date heating degree days 217  
Since 1 July heating degree days 2199  
Cooling Degree Days 0    
Month to date cooling degree days 0  
Year to date cooling degree days 0  
Growing Degree Days 14 (Base 50)    
Moisture  
Dew Point 47 °F    
Average Humidity 57    
Maximum Humidity 86    
Minimum Humidity 28    
Precipitation  
Precipitation 0.00 in - 0.34 in (1953)
Month to date precipitation 1.10  
Year to date precipitation 8.14  
Since 1 July precipitation 9.21  
Sea Level Pressure  
Sea Level Pressure 30.13 in    
Wind  
Wind Speed 3 mph (West)    
Max Wind Speed 13 mph    
Max Gust Speed 16 mph    
Visibility 10 miles    
Events      
T = Trace of Precipitation, MM = Missing Value Source: NWS Daily Summary

Daily Weather History Graph

Daily Weather History Graph

Search for Another Location

Airport:

Trip Planner

Search our weather history database for the weather conditions in past years. The results will help you decide how hot, cold, wet, or windy it might be!

Date:

Astronomy

Apr. 29, 2014 Rise Set
Actual Time 6:15 AM PDT 7:54 PM PDT
Civil Twilight 5:47 AM PDT 8:22 PM PDT
Nautical Twilight 5:14 AM PDT 8:55 PM PDT
Astronomical Twilight 4:38 AM PDT 9:31 PM PDT
Moon 6:36 AM PDT (4/29) 8:39 PM PDT (4/29)
Length of Visible Light 14h 34m
Length of Day
13h 39m
New Moon, 0% of the Moon is Illuminated
Apr 29
New Moon
May 6
First Quarter
May 14
Full
May 21
Last Quarter
May 28
New

Hourly Weather History & Observations

Time (PDT) Temp. Dew Point Humidity Pressure Visibility Wind Dir Wind Speed Gust Speed Precip Events Conditions
12:53 AM 52.0 °F 46.0 °F 80% 30.18 in 10.0 mi Calm Calm - N/A   Clear
1:53 AM 51.1 °F 46.0 °F 83% 30.19 in 10.0 mi Calm Calm - N/A   Clear
2:53 AM 51.1 °F 45.0 °F 80% 30.18 in 10.0 mi NW 3.5 mph - N/A   Clear
3:53 AM 50.0 °F 45.0 °F 83% 30.17 in 10.0 mi NW 3.5 mph - N/A   Clear
4:53 AM 48.9 °F 44.1 °F 83% 30.17 in 10.0 mi NW 3.5 mph - N/A   Clear
5:53 AM 46.9 °F 43.0 °F 86% 30.18 in 10.0 mi WNW 3.5 mph - N/A   Clear
6:53 AM 51.1 °F 43.0 °F 74% 30.18 in 10.0 mi Calm Calm - N/A   Clear
7:53 AM 55.0 °F 46.0 °F 72% 30.19 in 10.0 mi Calm Calm - N/A   Clear
8:53 AM 61.0 °F 46.0 °F 58% 30.20 in 10.0 mi Calm Calm - N/A   Clear
9:53 AM 66.9 °F 48.0 °F 51% 30.19 in 10.0 mi Calm Calm - N/A   Clear
10:53 AM 73.0 °F 48.0 °F 41% 30.18 in 10.0 mi Calm Calm - N/A   Clear
11:53 AM 79.0 °F 46.0 °F 31% 30.15 in 10.0 mi NE 3.5 mph - N/A   Clear
12:53 PM 82.0 °F 46.0 °F 28% 30.13 in 10.0 mi Variable 5.8 mph - N/A   Clear
2:53 PM 80.1 °F 48.0 °F 32% 30.10 in 10.0 mi WSW 10.4 mph - N/A   Clear
3:53 PM 79.0 °F 44.1 °F 29% 30.08 in 10.0 mi WSW 10.4 mph - N/A   Clear
4:53 PM 80.1 °F 46.9 °F 31% 30.06 in 10.0 mi WSW 8.1 mph - N/A   Clear
5:53 PM 79.0 °F 45.0 °F 30% 30.05 in 10.0 mi WSW 5.8 mph - N/A   Clear
6:53 PM 79.0 °F 45.0 °F 30% 30.04 in 10.0 mi Calm Calm - N/A   Clear
7:53 PM 63.0 °F 52.0 °F 67% 30.06 in 10.0 mi SSE 3.5 mph - N/A   Clear
8:53 PM 59.0 °F 51.1 °F 75% 30.07 in 10.0 mi SSW 3.5 mph - N/A   Clear
9:53 PM 57.9 °F 51.1 °F 78% 30.08 in 10.0 mi Calm Calm - N/A   Clear
10:53 PM 61.0 °F 48.9 °F 64% 30.07 in 10.0 mi NW 3.5 mph - N/A   Clear
11:53 PM 60.1 °F 48.9 °F 67% 30.07 in 10.0 mi Calm Calm - N/A   Clear